Regional Weather Roundup
Issued by NWS Upton, NY

Current Version | Previous Version | Text Only | Print | Product List | Glossary On
Versions: 1 2 3 4 5 6 7 8 9 10 11 12 13 14 15 16 17 18 19 20 21 22 23 24 25 26 27
000
ASUS41 KOKX 020208
RWROKX

REGIONAL WEATHER ROUNDUP
NATIONAL WEATHER SERVICE NEW YORK NY
900 PM EST THU DEC 01 2016

NOTE: "FAIR" INDICATES FEW OR NO CLOUDS BELOW 12,000 FEET WITH NO
SIGNIFICANT WEATHER AND/OR OBSTRUCTIONS TO VISIBILITY.

NYZ071-072-176-178-NJZ106-104-020300-
NEW YORK CITY METRO AREA

CITY           SKY/WX    TMP DP  RH WIND       PRES   REMARKS
Central Park   CLEAR     45  27  49 MISG      29.83R
Wall St Helipt CLEAR     46  31  55 VRB7      29.82R
Bronx Bot Gard NOT AVBL
LaGuardia APRT PTCLDY    48  27  44 W16G28    29.81R
Kennedy INTL   PTCLDY    47  26  44 W17G29    29.82R
Breezy Point     N/A     45 N/A N/A W14G24      N/A
Newark/Liberty PTCLDY    44  28  53 W16       29.82R
Teterboro      CLEAR     45  27  49 W10G20    29.81R
$$

NYZ177-179-078>081-020300-
LONG ISLAND NEW YORK

CITY           SKY/WX    TMP DP  RH WIND       PRES   REMARKS
Jones Beach      N/A     46 N/A N/A W20G26      N/A
Matinecock PT    N/A     46 N/A N/A W28         N/A
Farmingdale    MOCLDY    47  29  49 W14G23    29.79R
MacArthur/ISP  PTCLDY    45  30  55 W12       29.77R
Shirley        CLEAR     46  30  53 W9        29.78R
Westhampton    CLEAR     45  30  55 W13       29.78R
Southampton    NOT AVBL
Bridgehampton  NOT AVBL
East Hampton   MOCLDY    46  31  56 W9        29.75R
Montauk          N/A     47  34  60 W17G32    29.74R
$$

NYZ052-065-067-020300-
HUDSON VALLEY

CITY           SKY/WX    TMP DP  RH WIND       PRES   REMARKS
White Plains   CLEAR     44  27  51 W12       29.77R
Newburgh       CLEAR     41  32  70 W12       29.78S
Montgomery     CLOUDY    43  28  55 W10       29.77R
Poughkeepsie   PTCLDY    41  29  62 W12       29.77R
Albany         MOCLDY    40  30  67 W9        29.73R WCI  34
$$

NJZ001-105-106-008-010-013-015-019>022-104-020300-
NEW JERSEY

CITY           SKY/WX    TMP DP  RH WIND       PRES   REMARKS
Newark/Liberty PTCLDY    44  28  53 W16       29.82R
Teterboro      CLEAR     45  27  49 W10G20    29.81R
Caldwell       CLEAR     44  27  51 W9G17     29.82R
Somerville     CLEAR     43  27  53 W6        29.83R
Linden           N/A     44  28  53 W14G20    29.83R
Sussex         CLOUDY    42  28  57 SW7       29.80R
Andover          N/A     40  27  59 VRB3      29.81R
Trenton        CLEAR     43  26  51 W9G18     29.85S
Millville      PTCLDY    46  32  58 NW15      29.89R
Atlantic City  CLEAR     45  30  55 NW13      29.87R
Wrightstown    PTCLDY    45  28  52 NW13      29.84R
Toms River     PTCLDY    44  30  57 NW8       29.87R
Belmar         PTCLDY    43  28  55 W13       29.85R
$$

PAZ047>061-062-071-020300-
EASTERN PENNSYLVANIA

CITY           SKY/WX    TMP DP  RH WIND       PRES   REMARKS
Philadelphia   MOCLDY    47  24  40 NW20G28   29.90R
Allentown      CLEAR     40  26  57 W8        29.86R WCI  34
Scranton       CLOUDY    39  27  62 SW13      29.80S WCI  31
$$

CTZ002-004>006-009-010-012-RIZ004-006-007-MAZ004-011-015-020300-
SOUTHERN NEW ENGLAND
 IN CT

CITY           SKY/WX    TMP DP  RH WIND       PRES   REMARKS
Bradley INTL   CLEAR     41  33  73 CALM      29.73R
Hartford       CLEAR     44  31  60 W8        29.74R
Danbury        CLEAR     41  28  60 W10       29.77R
Wtrbury/Oxford CLEAR     41  27  56 W12       29.75R
Bridgeport     PTCLDY    46  31  55 W8        29.76R
Meriden        CLEAR     45  29  53 W12       29.74R
New Haven      CLEAR     45  32  60 W6        29.76R
Chester          N/A     45  30  57 VRB7G13   29.73R
Groton         PTCLDY    49  32  52 W15G22    29.73R
Wilimantic     CLEAR     45  34  65 W6        29.72R

 IN RI

CITY           SKY/WX    TMP DP  RH WIND       PRES   REMARKS
Providence     CLOUDY    46  32  58 W12G21    29.70R
Block Island   MOCLDY    47  34  60 W13G26    29.72R
Westerly       MOCLDY    47  30  51 VRB6      29.72R
 IN MA

CITY           SKY/WX    TMP DP  RH WIND       PRES   REMARKS
Boston         PTCLDY    46  33  60 W20G31    29.64R
Worcester      CLEAR     39  29  67 W15G28    29.64R WCI  31
Westfield      CLEAR     42  30  62 CALM      29.71R
Provincetown   PTCLDY    48  36  63 W20G28    29.63R
Nantucket      CLOUDY    49  35  58 W12       29.67R
$$

ANZ330-335-338-340-345-350-353-355-020300-
COASTAL MARINE OBSERVATIONS


STATION/POSITION TIME  SKY/WX   TEMP    WIND        PRES    VSBY  WAVE
                                AIR SEA DIR/SP/G                  HT/PER
                 (UTC)          (F)     (DEG/KT/KT) (MB)    (MI)  (FT/S)
NY HARB ENTRANCE 0050            49 54  290/ 27/ 31 1008.5          5/ 5
20 S FIRE ISLAND 0050            50 55  290/ 27/ 33 1007.7          7/ 6
GREAT SOUTH BAY  0045            48 46                N/A
23 SSW MONTAUK P 0050            51 56  270/ 25/ 33 1006.6          9/ 8
15 E BARNEGAT LI 0100               55                N/A           5/ 8
HUDSON CANYON    0050            54 59              1008.1         10/ 7
KINGS POINT      0100            47 50              1008.6
EXECUTION ROCKS  0115            48     270/ 14/ 19   N/A
CENTRAL LI SOUND 0045            49 52  280/ 21/ 27   N/A           4/ 5
EASTERN LI SOUND NOT AVBL
ROBBINS REEF     0100            46     280/ 19/ 25 1009.3
$$


>>>>>>>>>>>>>>>>>>>>>>>>>>>> KEY <<<<<<<<<<<<<<<<<<<<<<<<<<<
>                                                          <
>     SKY/WX - Sky Condition/Present Weather               <
>     TMP    - Temperature in Fahrenheit                   <
>     DP     - Dew Point in Fahrenheit                     <
>     RH     - Relative Humidity in Percent                <
>     WIND   - Direction (from) and Speed in MPH           <
>     PRES   - Mean Sea Level Pressure (inches of Hg)      <
>     WCI    - Wind Chill Index                            <
>     VSB    - VISIBILITY IN MILES                         <
>     HX     - HEAT INDEX                                  <
>     TC     - TEMPERATURE IN CELSIUS                      <
>     VRB    - VARIABLE WIND DIRECTION                     <
>                                                          <
>>>>>>>>>>>>>>>>>>>>>>>>>>>> KEY <<<<<<<<<<<<<<<<<<<<<<<<<<<




USA.gov is the U.S. government's official web portal to all federal, state and local government web resources and services.